Temperature
16 16 16 16 15 15 15 15 15 15 14 14 14 14 14 14 14 14 14 14 14 14 14 14 14 14 14 13 13 13 13 13 13 13 13 13 13 14 14 14 14 14 14
16 16 16 16 15 15 15 15 15 14 14 14 14 14 14 14 14 14 14 14 14 14 14 14 14 13 14 13 13 13 13 13 13 13 13 13 13 13 13 14 14 14 14
16 16 16 16 15 15 15 15 15 14 14 14 14 14 14 14 14 14 13 13 13 13 13 13 13 13 13 13 13 13 13 13 13 13 13 13 13 13 13 13 14 14 14
16 16 16 15 15 15 15 15 14 14 14 14 14 14 14 13 13 13 13 13 13 13 13 13 13 13 13 13 13 13 13 13 13 13 13 13 13 13 13 13 13 13 13
16 16 15 15 15 15 14 14 14 14 14 14 14 13 13 13 13 13 13 13 13 13 13 13 13 13 13 13 13 13 13 13 13 13 13 13 13 13 13 13 13 13 13
16 15 15 15 15 14 14 14 14 14 14 13 13 13 13 13 13 13 13 13 13 13 13 13 13 13 13 13 13 13 13 13 13 13 13 13 13 13 12 12 12 12 13
15 15 15 15 14 14 14 14 14 14 13 13 13 13 13 13 13 13 13 12 12 12 12 13 13 13 12 12 12 12 12 12 12 12 12 12 12 12 12 12 12 12 12
15 15 14 14 14 14 14 14 13 13 13 13 13 13 13 12 12 12 12 12 12 12 12 12 12 12 12 12 12 12 12 12 12 12 12 12 12 12 12 12 12 12 12
15 14 14 14 14 14 13 13 13 13 13 12 12 12 12 12 12 12 12 12 12 12 12 12 12 12 12 11 11 12 12 12 12 12 12 12 12 12 12 12 12 12 12
14 14 14 13 13 13 13 13 12 12 12 12 12 12 12 12 12 11 11 11 11 11 11 11 11 11 11 11 11 11 11 11 11 12 12 12 12 12 11 11 11 11 11
14 13 13 13 13 13 12 12 12 12 12 12 11 11 11 11 11 11 11 11 11 11 11 11 11 11 11 11 10 11 11 10 11 11 11 11 11 11 11 11 11 11 11
13 13 13 12 12 12 12 12 11 11 11 11 11 11 11 11 11 11 11 10 10 10 10 10 10 10 10 10 10 10 10 10 10 10 10 11 11 11 11 11 11 11 11
13 12 12 12 12 12 11 11 11 11 11 11 10 10 10 10 10 10 10 10 10 10 10 10 10 10 10 10 10 10 10 10 10 10 10 10 10 10 10 10 10 10 10
12 12 12 11 11 11 11 11 10 10 10 10 10 10 10 10 10 10 9 9 9 9 9 9 9 9 9 9 9 9 9 9 9 9 9 9 10 10 10 10 10 10 10
11 11 11 11 11 10 10 10 10 10 9 9 9 9 9 9 9 9 8 8 8 8 8 9 9 9 9 9 9 9 9 9 9 9 9 9 9 9 9 9 9 9 9
11 11 10 10 10 10 10 10 9 9 9 9 9 8 8 8 8 8 8 8 8 8 8 8 8 8 8 8 8 8 8 8 8 8 8 8 8 8 9 9 9 9 9
10 10 10 10 9 9 9 9 9 9 9 8 8 8 8 8 8 8 8 8 8 7 7 7 7 7 7 7 7 7 7 7 7 7 7 8 8 8 8 8 8 8 8
10 9 9 9 9 9 8 8 8 8 8 8 8 8 8 7 7 7 7 7 7 7 7 7 6 6 6 6 6 6 6 6 7 7 7 7 7 7 7 7 7 8 8
9 9 8 8 8 8 8 7 7 7 7 7 7 7 7 7 7 7 7 6 6 6 6 6 6 6 6 6 6 6 6 6 6 6 6 6 6 6 6 7 7 7 7
8 8 8 8 7 7 7 7 7 7 6 6 6 6 6 6 6 6 6 6 6 6 6 5 5 5 5 5 5 5 5 5 5 5 5 5 6 6 6 6 6 6 7
8 7 7 7 7 7 6 6 6 6 6 6 6 6 5 5 5 5 5 5 5 5 5 5 5 5 5 5 5 5 5 5 5 5 5 5 5 5 6 5 6 6 6
7 7 7 6 6 6 6 6 6 5 5 5 5 5 5 5 5 5 5 5 5 5 5 4 4 4 4 4 4 4 4 4 4 4 4 4 4 5 5 5 5 5 5
6 6 6 6 6 5 5 5 5 5 5 5 5 5 5 5 4 4 4 4 4 4 4 4 4 4 4 4 4 4 4 4 4 4 4 4 4 4 4 4 4 4 5
6 6 5 5 5 5 5 5 4 4 4 4 4 4 4 4 4 4 4 4 4 4 4 4 4 4 4 4 3 3 3 3 3 3 3 3 3 3 3 4 4 4 4
5 5 5 5 4 4 4 4 4 4 4 4 4 4 4 4 3 4 4 3 3 3 3 3 3 3 3 3 3 3 3 3 3 3 3 3 3 3 3 3 3 4 4
5 5 4 4 4 4 4 4 3 3 3 3 3 3 3 3 3 3 3 3 3 3 3 3 3 3 3 3 3 3 3 3 3 3 3 2 3 3 3 3 3 3 3
Wind_Speed
1 1 1 0 0 0 0 2 2 2 2 2 2 2 3 3 2 2 2 2 2 3 3 2 2 2 1 1 1 1 1 2 2 3 2 2 2 3 3 3 3 4 5
1 1 1 1 1 1 1 2 2 2 2 2 1 2 2 3 2 2 2 2 2 2 3 2 3 2 2 2 1 1 2 2 3 3 2 2 2 3 2 2 2 3 3
2 2 2 1 1 1 2 2 2 2 2 2 2 2 2 2 2 2 2 2 2 2 2 2 3 2 3 2 2 2 2 2 2 2 3 2 2 2 2 2 2 2 2
3 3 2 1 1 1 2 2 2 2 2 2 2 2 2 2 2 2 2 2 2 3 3 3 3 2 3 3 2 3 2 2 2 2 3 2 2 2 1 2 2 2 2
3 2 1 1 1 1 2 2 2 2 2 2 2 3 3 2 2 2 2 2 2 3 3 3 4 4 4 3 2 2 2 2 2 2 3 2 2 2 2 2 2 3 2
3 1 1 1 2 2 1 2 2 2 2 2 2 3 4 4 5 4 3 2 2 3 4 4 4 4 5 6 5 4 3 3 4 3 3 4 5 4 3 2 2 2 3
2 1 1 1 1 1 1 2 2 2 2 2 3 3 4 5 7 6 5 2 2 3 4 4 4 4 4 4 5 6 5 6 6 5 5 6 5 5 4 4 4 4 4
2 1 1 1 1 1 1 1 1 1 1 2 3 3 4 5 7 7 7 3 3 4 4 4 4 6 5 4 4 4 5 5 6 5 6 7 7 6 5 5 5 4 3
2 1 1 0 0 1 1 2 1 1 2 2 3 3 4 6 8 7 6 2 3 5 5 4 4 5 9 7 4 5 6 6 6 7 8 8 10 9 6 3 3 3 4
0 1 1 0 0 1 2 2 1 1 2 2 3 3 4 5 8 8 7 2 3 4 5 5 6 7 9 8 4 5 7 8 6 6 6 6 6 6 7 6 6 5 3
0 1 1 1 0 0 1 1 1 2 2 3 3 4 4 5 8 9 7 3 3 4 5 5 5 10 10 10 7 6 9 8 5 5 5 5 4 4 4 5 6 6 6
1 2 2 1 1 1 1 1 2 1 2 3 4 5 4 5 6 8 9 7 5 4 5 5 6 11 11 10 8 8 10 8 4 4 5 5 5 6 5 5 6 6 7
2 1 2 2 2 1 1 1 2 2 2 3 3 4 5 5 6 9 10 9 9 5 5 9 11 12 10 8 9 10 8 4 4 5 6 6 6 6 4 3 4 4 4
2 1 2 2 3 3 1 1 1 2 2 3 4 5 5 5 5 5 5 6 7 6 6 8 10 10 7 7 7 6 4 5 5 6 6 6 4 4 4 4 3 3 3
1 1 2 2 2 3 3 2 3 3 4 4 4 4 5 6 8 10 7 6 5 6 6 4 4 4 4 4 5 5 5 4 5 5 6 6 5 5 5 4 3 3 4
1 1 1 2 2 2 3 4 5 5 8 8 8 7 6 9 12 12 12 12 11 9 5 4 5 5 6 6 6 6 5 5 6 6 7 6 6 6 6 4 4 5 6
1 1 1 2 2 3 3 3 6 7 8 8 9 10 10 12 13 12 12 12 10 7 4 5 6 6 6 6 6 6 7 6 6 6 7 7 7 7 6 6 6 6 6
1 2 2 2 2 3 3 3 4 5 6 6 7 10 12 12 12 12 11 8 5 4 4 5 6 7 7 7 7 7 7 6 6 7 7 7 7 7 7 7 7 7 7
1 2 2 2 2 3 3 4 4 5 5 6 7 8 11 11 11 10 8 4 5 6 6 6 7 7 7 7 7 7 7 7 7 7 7 8 7 7 8 8 8 9 8
2 4 4 2 3 3 3 4 4 5 6 6 7 7 6 6 6 7 5 5 6 7 7 7 7 8 8 8 8 7 7 8 8 8 8 8 7 7 8 9 8 7 7
2 4 6 4 3 4 4 5 5 5 6 7 7 8 10 7 7 8 7 7 7 8 8 8 8 8 8 8 8 8 9 8 8 8 8 8 7 7 7 7 7 7 7
2 3 3 4 4 5 5 5 6 6 7 8 8 8 12 7 7 7 8 8 8 8 8 8 8 8 8 8 8 9 9 9 8 8 8 7 7 8 7 7 7 7 7
3 3 4 4 4 6 7 5 6 7 7 8 8 8 8 7 8 8 9 9 8 8 8 8 8 9 8 9 9 9 9 10 9 8 8 8 8 8 8 8 8 8 8
3 4 5 5 5 5 6 7 7 7 8 8 8 8 8 8 9 10 10 9 9 8 8 8 9 11 13 11 10 11 11 12 11 9 10 9 9 9 8 8 9 9 9
4 5 5 6 6 6 7 7 8 8 8 8 8 8 9 9 9 9 9 9 10 10 11 10 9 10 13 15 14 13 15 17 16 12 9 8 10 10 9 10 9 9 9
5 5 6 6 6 7 7 8 8 8 8 9 8 8 9 9 9 9 9 9 9 10 10 10 11 14 15 14 15 16 17 17 16 15 10 8 9 9 9 9 10 9 9
Wind_Direction
151 157 137 193 254 206 290 291 296 312 320 331 336 350 356 358 0 21 3 10 13 349 350 345 321 312 311 296 225 196 204 186 229 279 272 290 304 318 327 319 301 293 290
144 118 108 78 59 38 346 323 319 324 324 330 350 359 352 353 357 6 348 355 358 339 330 335 320 324 315 296 260 237 227 209 207 264 295 301 288 292 302 305 319 305 288
112 100 75 60 50 0 339 339 347 350 347 356 15 1 344 342 342 334 332 333 325 312 309 308 305 321 313 301 277 261 251 230 204 225 276 285 287 295 311 308 303 317 309
103 97 78 31 340 320 339 355 359 8 6 357 356 341 330 328 329 326 335 334 324 322 318 308 297 285 277 286 287 269 251 237 222 232 263 279 280 292 295 291 307 307 303
102 91 57 12 22 29 20 4 3 8 4 355 2 349 337 328 324 323 316 323 322 323 326 321 307 301 294 283 281 271 245 240 237 239 257 273 275 276 268 263 277 299 295
106 94 38 43 37 29 15 19 20 6 358 4 353 343 338 332 335 331 319 310 307 308 310 313 312 314 317 318 304 280 244 235 236 236 247 252 261 250 247 246 251 275 283
102 72 45 45 27 354 12 40 16 351 358 351 337 336 322 315 332 335 328 313 295 290 291 301 310 314 316 308 315 318 298 269 243 228 239 247 249 238 228 242 238 238 245
81 45 24 33 349 348 24 2 332 332 330 318 319 318 317 321 333 335 334 320 295 288 282 278 283 295 298 298 300 307 300 291 272 251 242 250 248 239 225 235 238 244 256
65 3 325 303 314 342 329 306 300 312 313 302 306 314 315 316 330 333 340 320 301 295 288 284 281 284 296 300 292 291 298 296 294 278 266 267 267 257 231 218 230 231 256
295 288 305 327 141 292 287 290 291 291 293 304 312 308 303 305 323 332 336 321 307 302 300 295 292 290 296 299 278 268 281 285 295 302 294 290 284 272 247 224 221 229 241
296 22 9 347 332 311 326 319 311 315 327 325 316 310 304 303 318 327 330 320 293 296 298 298 296 301 298 293 285 264 266 276 281 282 284 284 285 275 262 238 225 223 228
68 47 12 347 338 5 16 351 345 346 343 327 322 320 313 309 312 318 323 318 310 287 288 289 291 300 300 297 289 277 278 283 275 275 275 273 272 268 261 250 240 237 236
71 33 353 350 348 349 354 331 336 339 328 314 313 308 308 310 311 318 320 316 312 299 284 289 294 298 302 300 289 287 287 276 266 266 265 262 258 258 257 256 251 244 248
87 1 343 347 338 335 327 298 298 299 301 304 301 297 299 304 303 308 309 310 308 306 301 301 303 299 293 286 295 293 277 260 258 259 264 261 262 260 253 244 246 242 253
72 4 341 330 317 318 314 290 276 264 258 275 275 274 286 295 292 298 304 299 295 290 304 307 307 306 302 297 293 286 279 276 272 267 262 260 262 259 254 240 234 232 238
88 334 320 314 310 309 313 317 302 287 299 295 287 283 278 279 296 304 303 301 302 303 305 290 288 287 284 284 286 288 282 273 272 272 264 254 254 257 255 245 235 231 240
191 271 296 299 299 300 303 308 313 317 317 313 309 307 298 298 301 303 303 302 301 304 289 279 279 279 279 278 276 275 277 273 270 272 270 263 255 254 254 247 240 239 242
233 280 284 274 281 286 288 288 289 297 309 310 307 306 308 307 305 304 306 312 305 299 272 273 277 277 276 277 275 274 275 276 272 270 269 267 260 252 252 248 240 237 240
262 275 275 276 280 281 286 289 290 290 290 294 303 308 308 309 308 305 307 288 279 279 276 274 274 275 274 273 273 272 271 272 272 272 268 263 262 256 252 249 244 238 236
268 286 291 281 282 286 287 288 289 289 291 292 294 295 304 310 307 304 296 281 275 275 273 274 275 275 275 272 270 269 270 268 269 270 268 263 257 255 255 252 244 243 241
272 293 303 300 283 278 279 280 281 284 286 287 285 286 291 292 289 288 286 282 277 276 275 275 275 274 273 272 269 267 266 267 264 264 265 262 259 256 253 253 247 242 241
258 267 272 274 277 279 280 277 278 280 282 284 287 289 293 286 282 284 283 280 276 272 272 274 275 272 269 268 269 269 266 264 263 261 260 260 259 257 253 250 247 241 240
256 269 277 277 277 284 288 284 282 282 282 283 285 288 288 283 282 282 282 283 281 279 275 272 274 277 274 270 262 261 265 264 260 255 254 259 260 258 253 250 249 244 237
256 263 269 275 277 277 278 281 282 281 282 283 284 284 283 282 282 283 283 283 284 283 277 274 273 274 275 276 270 263 259 260 260 254 249 252 255 258 255 252 250 244 237
258 264 267 271 275 277 279 280 281 281 282 282 283 284 284 284 283 284 285 284 284 286 284 280 277 276 276 275 273 269 266 265 264 260 252 251 253 253 253 251 248 243 238
262 266 269 271 272 274 275 278 280 281 281 282 281 281 283 284 285 286 287 287 287 286 287 287 281 279 280 279 275 272 270 268 266 263 254 251 251 251 251 253 248 239 238
Height
1546 1546 1546 1547 1547 1546 1546 1545 1545 1544 1543 1542 1542 1541 1540 1539 1538 1537 1536 1535 1534 1533 1533 1532 1531 1531 1530 1529 1529 1528 1528 1527 1526 1525 1525 1525 1525 1524 1524 1524 1524 1524 1524
1545 1545 1546 1546 1546 1545 1545 1544 1544 1543 1543 1542 1541 1540 1539 1538 1537 1536 1535 1534 1533 1533 1532 1531 1530 1529 1529 1528 1527 1527 1526 1526 1525 1523 1523 1523 1523 1522 1522 1522 1522 1522 1522
1544 1544 1545 1545 1544 1544 1544 1543 1543 1542 1542 1541 1540 1539 1538 1537 1536 1535 1535 1534 1533 1532 1531 1530 1529 1528 1527 1526 1525 1525 1524 1524 1523 1522 1521 1521 1520 1520 1519 1519 1519 1519 1519
1543 1543 1543 1543 1543 1543 1543 1542 1542 1541 1540 1539 1539 1538 1537 1536 1535 1534 1534 1532 1531 1530 1529 1528 1527 1526 1525 1524 1523 1523 1522 1521 1520 1519 1519 1518 1518 1517 1517 1516 1516 1516 1516
1542 1542 1542 1542 1542 1542 1542 1541 1540 1540 1539 1538 1537 1536 1536 1535 1534 1533 1532 1531 1530 1529 1527 1526 1525 1524 1523 1522 1521 1520 1519 1518 1518 1517 1516 1515 1515 1514 1514 1514 1513 1513 1513
1541 1541 1541 1541 1541 1540 1540 1540 1539 1538 1537 1537 1536 1535 1534 1533 1532 1531 1530 1529 1528 1526 1525 1524 1523 1522 1521 1520 1519 1518 1517 1516 1515 1514 1513 1512 1512 1511 1511 1511 1510 1510 1509
1541 1540 1540 1540 1540 1539 1539 1538 1537 1537 1536 1535 1534 1533 1532 1531 1530 1529 1528 1527 1525 1524 1523 1521 1520 1519 1518 1517 1516 1515 1514 1513 1512 1511 1509 1509 1508 1508 1508 1507 1507 1506 1506
1539 1539 1539 1539 1538 1538 1537 1536 1536 1535 1534 1533 1532 1531 1530 1529 1527 1526 1525 1524 1522 1521 1520 1518 1517 1516 1515 1513 1512 1511 1510 1509 1508 1507 1506 1505 1505 1504 1504 1504 1503 1502 1502
1538 1538 1537 1537 1536 1536 1535 1534 1534 1533 1532 1531 1530 1528 1527 1526 1525 1523 1522 1520 1519 1518 1517 1515 1514 1512 1511 1510 1508 1506 1505 1504 1504 1502 1501 1501 1500 1500 1499 1499 1498 1498 1496
1536 1536 1536 1535 1534 1534 1533 1532 1531 1530 1529 1528 1527 1526 1524 1523 1522 1520 1518 1517 1515 1514 1513 1512 1510 1509 1507 1505 1504 1502 1500 1499 1498 1497 1496 1495 1495 1494 1494 1494 1493 1493 1492
1535 1534 1534 1533 1532 1532 1531 1530 1529 1528 1527 1526 1524 1523 1521 1520 1518 1517 1515 1513 1511 1510 1508 1507 1506 1504 1503 1501 1499 1497 1496 1494 1493 1491 1490 1489 1489 1488 1488 1488 1488 1488 1487
1533 1532 1532 1531 1530 1529 1528 1527 1526 1525 1524 1522 1521 1520 1518 1517 1515 1513 1512 1510 1508 1506 1504 1502 1501 1500 1498 1496 1494 1492 1491 1489 1487 1485 1484 1483 1482 1482 1482 1482 1482 1482 1481
1531 1530 1530 1529 1528 1527 1526 1525 1524 1522 1521 1519 1518 1516 1514 1513 1512 1510 1508 1506 1504 1502 1500 1498 1496 1494 1492 1491 1489 1487 1485 1483 1481 1480 1478 1477 1477 1476 1476 1476 1475 1475 1475
1529 1528 1527 1526 1525 1524 1523 1522 1521 1519 1518 1516 1514 1512 1511 1509 1507 1505 1503 1501 1499 1497 1495 1492 1491 1489 1487 1485 1483 1481 1480 1478 1476 1474 1472 1471 1471 1470 1469 1469 1468 1468 1467
1527 1526 1525 1524 1523 1522 1520 1519 1517 1516 1515 1513 1511 1509 1507 1504 1503 1501 1499 1496 1494 1492 1489 1487 1484 1482 1480 1478 1477 1475 1473 1472 1470 1468 1466 1465 1464 1463 1462 1462 1462 1461 1461
1524 1523 1522 1521 1520 1519 1517 1516 1514 1513 1511 1509 1507 1505 1503 1501 1498 1496 1494 1492 1489 1487 1484 1481 1479 1476 1474 1472 1470 1468 1467 1465 1463 1462 1459 1458 1457 1456 1455 1455 1455 1454 1454
1522 1521 1520 1518 1517 1515 1514 1512 1510 1508 1507 1504 1502 1500 1498 1496 1493 1491 1488 1486 1483 1481 1478 1475 1473 1471 1468 1466 1464 1462 1460 1459 1457 1455 1453 1451 1450 1449 1448 1447 1447 1447 1446
1519 1518 1517 1515 1513 1512 1510 1508 1505 1503 1500 1498 1497 1495 1492 1490 1487 1485 1483 1480 1477 1475 1472 1470 1467 1465 1462 1460 1457 1455 1453 1451 1450 1448 1445 1444 1443 1441 1441 1440 1439 1439 1439
1516 1514 1513 1511 1510 1508 1506 1503 1501 1499 1496 1493 1491 1489 1487 1484 1481 1479 1477 1474 1471 1468 1466 1463 1461 1458 1456 1453 1451 1449 1446 1444 1442 1440 1438 1437 1436 1434 1433 1432 1432 1432 1432
1512 1511 1509 1507 1505 1503 1501 1499 1496 1494 1491 1488 1486 1483 1480 1478 1475 1472 1470 1468 1465 1462 1459 1457 1454 1451 1449 1446 1444 1441 1439 1436 1434 1433 1431 1429 1428 1427 1426 1425 1424 1424 1424
1508 1506 1505 1503 1501 1499 1496 1494 1492 1489 1486 1483 1480 1478 1476 1473 1469 1466 1464 1461 1458 1455 1453 1450 1447 1444 1441 1438 1436 1433 1431 1429 1426 1424 1423 1421 1420 1419 1417 1417 1416 1416 1417
1504 1502 1500 1498 1496 1494 1491 1489 1486 1484 1481 1478 1475 1472 1470 1467 1464 1461 1457 1455 1452 1449 1446 1443 1439 1436 1434 1431 1428 1426 1423 1420 1418 1416 1415 1413 1412 1410 1410 1409 1408 1408 1409
1499 1497 1495 1493 1491 1489 1486 1484 1481 1478 1475 1472 1469 1466 1463 1460 1457 1454 1451 1447 1444 1441 1438 1435 1432 1429 1426 1423 1421 1418 1415 1412 1411 1409 1407 1405 1403 1402 1401 1400 1400 1400 1400
1494 1492 1490 1488 1486 1483 1480 1477 1475 1472 1469 1466 1463 1459 1456 1453 1450 1446 1443 1440 1437 1434 1431 1428 1424 1421 1418 1415 1412 1409 1407 1404 1402 1400 1399 1397 1395 1394 1393 1392 1392 1392 1392
1489 1487 1485 1482 1480 1477 1474 1471 1468 1465 1462 1459 1456 1452 1449 1446 1442 1439 1436 1432 1429 1426 1423 1419 1416 1413 1409 1406 1403 1400 1398 1396 1394 1392 1390 1388 1387 1385 1385 1384 1383 1383 1384
1483 1481 1479 1476 1473 1471 1468 1464 1461 1458 1455 1451 1448 1445 1442 1438 1435 1431 1428 1425 1421 1418 1414 1411 1407 1404 1400 1397 1394 1391 1389 1387 1385 1383 1381 1380 1378 1377 1376 1376 1375 1375 1376